Regional Weather Roundup
Issued by NWS

Home | Current Version | Previous Version | Graphics & Text | Print | Product List | Glossary On
Versions: 1 2 3 4 5 6 7 8 9 10 11 12 13 14 15 16 17 18 19 20 21 22 23 24 25 26 27 28 29 30 31 32 33 34 35 36 37 38 39 40 41 42 43 44 45 46 47 48 49 50
000
ASUS43 KDMX 230906
RWRIA

WEATHER ROUNDUP FOR IOWA
NATIONAL WEATHER SERVICE DES MOINES IA
400 AM CDT TUE MAY 23 2017

NOTE: "FAIR" INDICATES FEW OR NO CLOUDS BELOW 12,000 FEET WITH NO
SIGNIFICANT WEATHER AND/OR OBSTRUCTIONS TO VISIBILITY.

* - THESE STATIONS ARE NOT NWS STATIONS...THUS NOT UNDER NWS
QUALITY CONTROL.  THEY ALSO DO NOT REPORT WEATHER SUCH
AS PRECIPITATION OR FOG.

IAZ001>003-012>014-020>022-031>034-043>046-231000-
   NORTHWEST IOWA

CITY           SKY/WX    TMP DP  RH WIND       PRES   REMARKS
CARROLL *      PTCLDY    48  48 100 NW8       29.86S
CHEROKEE *     CLOUDY    48  46  93 NW7       29.88S
DENISON *      CLEAR     48  45  87 NW7       29.90S
LE MARS *      PTCLDY    46  45  93 NW8       29.91S
ORANGE CITY *  MOCLDY    46  43  87 NW8       29.90R
SHELDON *      MOCLDY    46  43  87 NW10        N/A
SIOUX CITY     PTCLDY    47  44  90 NW8       29.91F
SPENCER        CLOUDY    49  47  93 NW12      29.85F
STORM LAKE *   CLOUDY    50  46  87 W12       29.87S
$$

IAZ055>058-069>071-079>083-090>094-231000-
   SOUTHWEST IOWA

CITY           SKY/WX    TMP DP  RH WIND       PRES   REMARKS
ATLANTIC *     CLOUDY    50  46  87 NW8       29.88S
AUDUBON *      PTCLDY    48  45  87 NW3       29.88S
CLARINDA *     CLOUDY    54  48  82 N10       29.90R
COUNCIL BLFS * PTCLDY    48  48 100 NW7       29.90S
CRESTON *      PTCLDY    50  50 100 NW12      29.87R
HARLAN  *      CLEAR     48  46  93 NW6       29.92S
LAMONI         FOG       51  51 100 W3        29.85R VSB 1/2
RED OAK *      CLOUDY    52  46  82 N8        29.89S
SHENANDOAH *   CLOUDY    54  48  82 NW8       29.90R
$$

IAZ047>049-059>061-072>074-084-231000-
   CENTRAL IOWA

CITY           SKY/WX    TMP DP  RH WIND       PRES   REMARKS
AMES           CLOUDY    51  49  92 NW13      29.82R
ANKENY *       CLOUDY    52  50  93 NW7G14    29.83S
BOONE *        CLOUDY    50  50 100 NW10      29.82R
DES MOINES     CLOUDY    54  51  90 NW12      29.82S
GRINNELL*      CLEAR     50  48  92 SW6       29.81F
MARSHALLTOWN   PTCLDY    50  49  96 NW9       29.79S
NEWTON *       PTCLDY    52  50  93 W6        29.80S
PELLA *        CLEAR     52  51  97 W3        29.83S
PERRY *        CLOUDY    52  50  92 NW10      29.84S
$$

IAZ004>006-015-016-023>025-035-036-231000-
   NORTH CENTRAL IOWA

CITY           SKY/WX    TMP DP  RH WIND       PRES   REMARKS
ALGONA *       CLOUDY    52  50  93 NW7       29.84S
CLARION *      CLOUDY    52  52 100 NW6       29.83R
ESTHERVILLE    CLOUDY    49  48  97 NW9       29.84S
FORT DODGE *   CLOUDY    52  48  87 W6        29.85S
MASON CITY     CLOUDY    49  47  93 NW6       29.82S
FOREST CITY *  CLOUDY    50  45  81 NW8       29.82S
WEBSTER CITY * CLOUDY    50  48  93 NW7       29.81S
IOWA FALLS *     N/A     50  49  94 NW10      29.81S
$$

IAZ007>011-017>019-026>030-037>042-050>054-066-231000-
   NORTHEAST IOWA

CITY           SKY/WX    TMP DP  RH WIND       PRES   REMARKS
CEDAR RAPIDS   CLOUDY    50  50 100 SW6       29.79S
CHARLES CITY * CLOUDY    52  52 100 N13       29.78F
CLINTON *      MOCLDY    54  51  90 S7        29.80F
DECORAH *      CLOUDY    52  52 100 CALM      29.76S FOG
DUBUQUE        CLOUDY    52  51  97 SW8       29.77S
MONTICELLO *   CLOUDY    54  52  94 SW5       29.78S
OELWEIN *      FOG       52  52 100 NW6       29.78R VSB 1
WATERLOO       CLEAR     49  48  97 NW5       29.77S
$$

IAZ064-065-067-068-078-231000-
   EAST CENTRAL IOWA

CITY           SKY/WX    TMP DP  RH WIND       PRES   REMARKS
DAVENPORT      CLOUDY    55  50  83 SW9       29.80F
IOWA CITY      CLOUDY    54  50  86 VRB3      29.81F
MT. PLEASANT * CLOUDY    55  54  98 SW7       29.83S
MUSCATINE *    CLOUDY    55  52  88 S6        29.82S
QUAD CITIES    CLOUDY    56  51  84 SW8       29.80F
$$

IAZ062-063-075>077-085>089-095>099-231000-
   SOUTHEAST IOWA

CITY           SKY/WX    TMP DP  RH WIND       PRES   REMARKS
BURLINGTON     CLOUDY    57  56  96 SW12      29.82F
FAIRFIELD *    PTCLDY    52  50  93 S6        29.81F
FORT MADISON * CLOUDY    57  55  94 S12       29.83F
KEOKUK *       CLOUDY    55  55 100 SW10G16   29.82F
OSKALOOSA *      N/A     51  50  95 SW7       29.82S
CENTERVILLE *    N/A     52  50  93 CALM      29.84S
OTTUMWA        CLOUDY    52  51  97 W7        29.82F
WASHINGTON *   CLOUDY    54  52  94 SW8       29.82F
$$

ABBREVIATIONS USED IN REMARKS
   TC - TEMPERATURES IN CELSIUS
  WCI - WIND CHILL INDEX
   HX - HEAT INDEX
  VSB - VISIBILITY
$$





USA.gov is the U.S. government's official web portal to all federal, state and local government web resources and services.